| time (UTC) | temp F | wind direction | speed MPH | gust MPH | rain 1hr in | rain 24hr in | rain mn in | humidity % | barometer mb |
| 20260504034027 | 65 | 318 | 1.0 | 5.0 | 0.00 | 0.06 | 0.00 | 62 | 1010.1 |
| 20260504033030 | 65 | 333 | 1.0 | 5.0 | 0.00 | 0.07 | 0.00 | 63 | 1010.1 |
| 20260504032020 | 66 | 52 | 9.0 | 15.0 | 0.00 | 0.11 | 0.00 | 63 | 1010.1 |
| 20260504031027 | 66 | 333 | 3.0 | 5.0 | 0.00 | 0.13 | 0.00 | 64 | 1010.2 |
| 20260504030030 | 65 | 337 | 2.0 | 7.0 | 0.00 | 0.17 | 0.00 | 63 | 1010.3 |
| 20260504025023 | 65 | 345 | 3.0 | 7.0 | 0.00 | 0.18 | 0.00 | 64 | 1010.4 |
| 20260504024029 | 65 | 347 | 3.0 | 7.0 | 0.00 | 0.18 | 0.00 | 63 | 1010.4 |
| 20260504023030 | 65 | 2 | 4.0 | 10.0 | 0.00 | 0.18 | 0.00 | 63 | 1010.5 |
| 20260504022054 | 65 | 36 | 4.0 | 10.0 | 0.00 | 0.18 | 0.00 | 64 | 1010.5 |
| 20260504021026 | 65 | 3 | 3.0 | 10.0 | 0.00 | 0.18 | 0.00 | 64 | 1010.7 |
| 20260504020114 | 65 | 24 | 2.0 | 7.0 | 0.00 | 0.22 | 0.00 | 64 | 1010.8 |
| 20260504015025 | 65 | 47 | 4.0 | 10.0 | 0.00 | 0.25 | 0.00 | 66 | 1010.9 |
| 20260504014030 | 64 | 311 | 1.0 | 2.0 | 0.00 | 0.26 | 0.00 | 67 | 1011.0 |
| 20260504013030 | 64 | 98 | 5.0 | 10.0 | 0.00 | 0.30 | 0.00 | 68 | 1011.0 |
| 20260504012018 | 64 | 75 | 3.0 | 17.0 | 0.00 | 0.34 | 0.00 | 68 | 1011.0 |
| 20260504011025 | 64 | 207 | 3.0 | 5.0 | 0.00 | 0.39 | 0.00 | 68 | 1011.2 |
| 20260504010030 | 64 | 53 | 6.0 | 10.0 | 0.00 | 0.41 | 0.00 | 67 | 1011.1 |
| 20260504005031 | 65 | 133 | 11.0 | 12.0 | 0.00 | 0.43 | 0.00 | 68 | 1011.1 |
| 20260504004121 | 65 | 98 | 2.0 | 5.0 | 0.00 | 0.45 | 0.00 | 68 | 1011.4 |
| 20260504003020 | 65 | 50 | 2.0 | 10.0 | 0.00 | 0.47 | 0.00 | 66 | 1011.2 |
| 20260504002026 | 65 | 33 | 0.0 | 2.0 | 0.00 | 0.47 | 0.00 | 64 | 1011.4 |
| 20260504001029 | 65 | 44 | 5.0 | 7.0 | 0.00 | 0.47 | 0.00 | 65 | 1011.3 |
| 20260504000030 | 64 | 313 | 1.0 | 2.0 | 0.00 | 0.47 | 0.00 | 64 | 1011.2 |
| 20260503235041 | 64 | 313 | 1.0 | 2.0 | 0.00 | 0.47 | 0.00 | 64 | 1011.0 |
| 20260503234018 | 63 | 209 | 6.0 | 10.0 | 0.00 | 0.47 | 0.00 | 64 | 1011.4 |
| 20260503233046 | 62 | 30 | 2.0 | 2.0 | 0.00 | 0.47 | 0.00 | 67 | 1011.5 |
| 20260503232023 | 61 | 84 | 5.0 | 10.0 | 0.00 | 0.47 | 0.00 | 67 | 1011.3 |
| 20260503231024 | 61 | 92 | 8.0 | 10.0 | 0.00 | 0.47 | 0.00 | 68 | 1011.0 |
| 20260503230025 | 61 | 161 | 0.0 | 2.0 | 0.00 | 0.47 | 0.00 | 71 | 1010.8 |
| 20260503225030 | 60 | 70 | 4.0 | 5.0 | 0.00 | 0.47 | 0.00 | 69 | 1010.9 |
| 20260503224019 | 59 | 115 | 7.0 | 10.0 | 0.00 | 0.47 | 0.00 | 69 | 1011.0 |
| 20260503223025 | 58 | 0.0 | 0.0 | 0.00 | 0.47 | 0.00 | 78 | 1011.2 | |
| 20260503222031 | 56 | 106 | 0.0 | 2.0 | 0.00 | 0.47 | 0.00 | 85 | 1011.3 |
| 20260503221031 | 56 | 355 | 0.0 | 2.0 | 0.00 | 0.47 | 0.00 | 86 | 1011.3 |
| 20260503220029 | 56 | 87 | 0.0 | 2.0 | 0.00 | 0.47 | 0.00 | 88 | 1011.4 |
| 20260503215029 | 56 | 345 | 0.0 | 2.0 | 0.00 | 0.47 | 0.00 | 88 | 1011.6 |
| 20260503214032 | 56 | 113 | 1.0 | 7.0 | 0.00 | 0.47 | 0.00 | 88 | 1011.5 |
| 20260503213125 | 56 | 114 | 1.0 | 7.0 | 0.00 | 0.47 | 0.00 | 87 | 1011.6 |
| 20260503212020 | 56 | 133 | 2.0 | 7.0 | 0.00 | 0.48 | 0.00 | 86 | 1011.6 |
| 20260503211025 | 55 | 124 | 2.0 | 10.0 | 0.00 | 0.48 | 0.00 | 86 | 1011.5 |
| 20260503210051 | 55 | 124 | 2.0 | 7.0 | 0.00 | 0.48 | 0.00 | 86 | 1011.5 |
| 20260503205104 | 55 | 77 | 1.0 | 5.0 | 0.00 | 0.48 | 0.00 | 85 | 1011.4 |
| 20260503204031 | 54 | 123 | 0.0 | 5.0 | 0.00 | 0.48 | 0.00 | 85 | 1011.4 |
| 20260503203026 | 54 | 121 | 1.0 | 5.0 | 0.00 | 0.50 | 0.00 | 88 | 1011.3 |
| 20260503202112 | 53 | 20 | 1.0 | 5.0 | 0.00 | 0.50 | 0.00 | 90 | 1011.2 |
| 20260503201022 | 53 | 70 | 1.0 | 5.0 | 0.00 | 0.50 | 0.00 | 90 | 1011.1 |
| 20260503200034 | 53 | 110 | 1.0 | 5.0 | 0.00 | 0.50 | 0.00 | 90 | 1011.1 |
| 20260503195027 | 54 | 43 | 0.0 | 7.0 | 0.00 | 0.50 | 0.00 | 89 | 1011.0 |
| 20260503194033 | 54 | 36 | 0.0 | 2.0 | 0.00 | 0.50 | 0.00 | 88 | 1011.1 |
| 20260503193023 | 54 | 95 | 0.0 | 5.0 | 0.00 | 0.50 | 0.00 | 88 | 1011.1 |
| 20260503192031 | 54 | 110 | 0.0 | 2.0 | 0.00 | 0.50 | 0.00 | 88 | 1011.1 |
| 20260503191042 | 54 | 117 | 0.0 | 2.0 | 0.00 | 0.50 | 0.00 | 86 | 1011.3 |
| 20260503190032 | 54 | 32 | 0.0 | 2.0 | 0.00 | 0.50 | 0.00 | 87 | 1011.5 |
| 20260503185024 | 54 | 121 | 0.0 | 2.0 | 0.00 | 0.51 | 0.00 | 88 | 1011.4 |
| 20260503184039 | 53 | 109 | 0.0 | 2.0 | 0.00 | 0.52 | 0.00 | 88 | 1011.6 |
| 20260503183023 | 53 | 103 | 1.0 | 5.0 | 0.00 | 0.52 | 0.00 | 91 | 1011.6 |
| 20260503182032 | 53 | 74 | 0.0 | 2.0 | 0.00 | 0.52 | 0.00 | 91 | 1011.7 |
| 20260503181101 | 54 | 128 | 0.0 | 5.0 | 0.00 | 0.52 | 0.00 | 91 | 1011.8 |
| 20260503180024 | 54 | 86 | 0.0 | 2.0 | 0.00 | 0.52 | 0.00 | 91 | 1012.0 |
| 20260503175029 | 54 | 45 | 0.0 | 2.0 | 0.00 | 0.52 | 0.00 | 91 | 1012.1 |
| 20260503174147 | 54 | 56 | 0.0 | 2.0 | 0.00 | 0.52 | 0.00 | 90 | 1012.1 |
| 20260503173037 | 54 | 0.0 | 0.0 | 0.00 | 0.52 | 0.00 | 90 | 1011.9 | |
| 20260503172131 | 55 | 0.0 | 0.0 | 0.00 | 0.52 | 0.00 | 89 | 1011.9 | |
| 20260503171025 | 55 | 0.0 | 0.0 | 0.00 | 0.52 | 0.00 | 88 | 1011.8 | |
| 20260503131025 | 58 | 73 | 2.0 | 5.0 | 0.00 | 0.52 | 0.52 | 84 | 1012.4 |
| 20260503081021 | 59 | 15 | 1.0 | 2.0 | 0.00 | 0.52 | 0.52 | 90 | 1011.4 |
| 20260503072023 | 60 | 99 | 0.0 | 2.0 | 0.02 | 0.52 | 0.52 | 97 | 1011.2 |
| 20260503071023 | 61 | 32 | 1.0 | 2.0 | 0.02 | 0.52 | 0.52 | 98 | 1011.1 |
| 20260503055024 | 64 | 92 | 4.0 | 5.0 | 0.01 | 0.50 | 0.50 | 97 | 1009.8 |
| 20260503054033 | 64 | 348 | 3.0 | 10.0 | 0.01 | 0.50 | 0.50 | 98 | 1010.0 |
| 20260503053040 | 64 | 56 | 9.0 | 15.0 | 0.01 | 0.50 | 0.50 | 98 | 1009.9 |
| 20260503052025 | 64 | 309 | 4.0 | 5.0 | 0.01 | 0.50 | 0.50 | 99 | 1009.9 |
| 20260503051047 | 64 | 343 | 0.0 | 2.0 | 0.01 | 0.50 | 0.50 | 99 | 1009.9 |
| 20260503050025 | 64 | 41 | 1.0 | 2.0 | 0.01 | 0.50 | 0.50 | 99 | 1009.8 |
| 20260503045027 | 64 | 33 | 1.0 | 5.0 | 0.01 | 0.48 | 0.48 | 99 | 1009.8 |
| 20260503044019 | 64 | 0.0 | 0.0 | 0.02 | 0.48 | 0.48 | 99 | 1009.8 | |
| 20260503043025 | 64 | 187 | 1.0 | 5.0 | 0.04 | 0.48 | 0.48 | 99 | 1009.8 |
| 20260503042031 | 63 | 0.0 | 0.0 | 0.07 | 0.48 | 0.48 | 99 | 1009.9 | |
| 20260503041032 | 62 | 0.0 | 0.0 | 0.09 | 0.48 | 0.48 | 99 | 1010.0 | |
| 20260503040018 | 62 | 0.0 | 0.0 | 0.13 | 0.48 | 0.48 | 99 | 1009.9 | |
| 20260503035024 | 62 | 343 | 0.0 | 2.0 | 0.13 | 0.47 | 0.47 | 99 | 1009.8 |